• In Österreich
  • Länderverzeichnis
  • Für 7 Tage
  • Wassertemperatur
  • Satellitenkarten
  • Wetterkarte
  • News
  • Widgets
  • user-avatar
    Anmelden

    Stündliche Wetter Igls

    Heute, 12 Dezember, Dienstag

    Zeit Temperatur Niederschläge Wind Luftdruck Luftfeuchtigkeit
    00:00 +3°C° 2,2 mm 3 m/S 667 mmHg 96%
    01:00 +3°C° 2,2 mm 3 m/S 667 mmHg 96%
    02:00 +4°C° 1,5 mm 2 m/S 668 mmHg 96%
    03:00 +4°C° 1,5 mm 2 m/S 669 mmHg 96%
    04:00 +4°C° 1,5 mm 2 m/S 670 mmHg 96%
    05:00 +3°C° 0,8 mm 2 m/S 671 mmHg 96%
    06:00 +3°C° 0,8 mm 2 m/S 672 mmHg 96%
    07:00 +3°C° 0,8 mm 2 m/S 673 mmHg 96%
    08:00 +2°C° 0,6 mm 2 m/S 674 mmHg 96%
    09:00 +2°C° 0,6 mm 2 m/S 675 mmHg 95%
    10:00 +2°C° 0,6 mm 2 m/S 676 mmHg 95%
    11:00 +2°C° 0,5 mm 2 m/S 677 mmHg 94%
    12:00 +1°C° 0,5 mm 2 m/S 677 mmHg 94%
    13:00 +2°C° 0,5 mm 1 m/S 678 mmHg 93%
    14:00 +2°C° 0,4 mm 1 m/S 678 mmHg 94%
    15:00 +1°C° 0,4 mm 1 m/S 679 mmHg 95%
    16:00 0°C° 0,4 mm 1 m/S 679 mmHg 96%
    17:00 0°C° 0,4 mm 1 m/S 680 mmHg 96%
    18:00 -1°C° 0,4 mm 1 m/S 680 mmHg 96%
    19:00 -3°C° 0,4 mm 2 m/S 681 mmHg 96%
    20:00 -4°C° 0,2 mm 2 m/S 681 mmHg 95%
    21:00 -4°C° 0,2 mm 2 m/S 682 mmHg 94%
    22:00 -4°C° 0,2 mm 2 m/S 682 mmHg 94%
    23:00 -4°C° 0,2 mm 2 m/S 683 mmHg 93%

    Morgen, 13 Dezember, Mittwoch

    Zeit Temperatur Niederschläge Wind Luftdruck Luftfeuchtigkeit
    00:00 -4°C° 0,2 mm 2 m/S 683 mmHg 93%
    01:00 -5°C° 0,2 mm 2 m/S 683 mmHg 92%
    02:00 -6°C° 0 mm 2 m/S 683 mmHg 92%
    03:00 -7°C° 0 mm 2 m/S 683 mmHg 91%
    04:00 -7°C° 0 mm 1 m/S 683 mmHg 91%
    05:00 -7°C° 0 mm 1 m/S 683 mmHg 89%
    06:00 -9°C° 0 mm 2 m/S 683 mmHg 88%
    07:00 -9°C° 0 mm 2 m/S 683 mmHg 86%
    08:00 -7°C° 0 mm 1 m/S 684 mmHg 83%
    09:00 -4°C° 0 mm 1 m/S 684 mmHg 81%
    10:00 -2°C° 0 mm 1 m/S 684 mmHg 78%
    11:00 -1°C° 0 mm 1 m/S 683 mmHg 77%
    12:00 -1°C° 0 mm 2 m/S 683 mmHg 75%
    13:00 +2°C° 0 mm 2 m/S 682 mmHg 74%
    14:00 +1°C° 0 mm 2 m/S 682 mmHg 76%
    15:00 -1°C° 0 mm 2 m/S 681 mmHg 79%
    16:00 -2°C° 0 mm 2 m/S 681 mmHg 82%
    17:00 -4°C° 0 mm 3 m/S 680 mmHg 81%
    18:00 -4°C° 0 mm 3 m/S 680 mmHg 80%
    19:00 -4°C° 0 mm 3 m/S 680 mmHg 78%
    20:00 -4°C° 0 mm 3 m/S 680 mmHg 77%
    21:00 -4°C° 0 mm 3 m/S 680 mmHg 76%
    22:00 -4°C° 0 mm 3 m/S 679 mmHg 75%
    23:00 -4°C° 0 mm 3 m/S 679 mmHg 74%

    übermorgen, 14 Dezember, Donnerstag

    Zeit Temperatur Niederschläge Wind Luftdruck Luftfeuchtigkeit
    00:00 -4°C° 0 mm 3 m/S 678 mmHg 72%
    01:00 -4°C° 0 mm 3 m/S 678 mmHg 71%
    02:00 -2°C° 0 mm 3 m/S 677 mmHg 72%
    03:00 -2°C° 0 mm 3 m/S 677 mmHg 73%
    04:00 -1°C° 0 mm 3 m/S 677 mmHg 74%
    05:00 -1°C° 0,1 mm 3 m/S 677 mmHg 75%
    06:00 -1°C° 0,1 mm 3 m/S 677 mmHg 75%
    07:00 -1°C° 0,1 mm 3 m/S 677 mmHg 76%
    08:00 +1°C° 0,1 mm 2 m/S 677 mmHg 78%
    09:00 +1°C° 0,1 mm 2 m/S 677 mmHg 81%
    10:00 +2°C° 0,1 mm 2 m/S 677 mmHg 83%
    11:00 +2°C° 0,7 mm 2 m/S 677 mmHg 85%
    12:00 +4°C° 0,7 mm 1 m/S 676 mmHg 87%
    13:00 +4°C° 0,7 mm 1 m/S 676 mmHg 89%
    14:00 +4°C° 0,5 mm 1 m/S 675 mmHg 90%
    15:00 +3°C° 0,5 mm 1 m/S 675 mmHg 92%
    16:00 +3°C° 0,5 mm 1 m/S 674 mmHg 93%
    17:00 +1°C° 0,2 mm 2 m/S 674 mmHg 92%
    18:00 +1°C° 0,2 mm 2 m/S 673 mmHg 91%
    19:00 -1°C° 0,2 mm 2 m/S 673 mmHg 90%
    20:00 0°C° 0,2 mm 3 m/S 672 mmHg 89%
    21:00 0°C° 0,2 mm 3 m/S 672 mmHg 87%
    22:00 0°C° 0,2 mm 3 m/S 672 mmHg 86%
    23:00 0°C° 0,9 mm 3 m/S 672 mmHg 89%

    15 Dezember, Freitag

    Zeit Temperatur Niederschläge Wind Luftdruck Luftfeuchtigkeit
    00:00 0°C° 0,9 mm 3 m/S 672 mmHg 92%
    01:00 -1°C° 0,9 mm 2 m/S 672 mmHg 95%
    02:00 -1°C° 0,9 mm 2 m/S 672 mmHg 95%
    03:00 -1°C° 0,9 mm 2 m/S 672 mmHg 95%
    04:00 -1°C° 0,9 mm 2 m/S 672 mmHg 95%
    05:00 -2°C° 0,4 mm 2 m/S 672 mmHg 95%
    06:00 -2°C° 0,4 mm 2 m/S 672 mmHg 94%
    07:00 -2°C° 0,4 mm 2 m/S 672 mmHg 94%
    08:00 0°C° 0,2 mm 1 m/S 673 mmHg 92%
    09:00 +1°C° 0,2 mm 1 m/S 673 mmHg 91%
    10:00 +1°C° 0,2 mm 1 m/S 673 mmHg 90%
    11:00 +2°C° 0,1 mm 1 m/S 673 mmHg 89%
    12:00 +2°C° 0,1 mm 1 m/S 672 mmHg 88%
    13:00 +3°C° 0,1 mm 1 m/S 672 mmHg 87%
    14:00 +2°C° 0,2 mm 1 m/S 672 mmHg 89%
    15:00 +1°C° 0,2 mm 1 m/S 671 mmHg 91%
    16:00 +1°C° 0,2 mm 1 m/S 671 mmHg 93%
    17:00 0°C° 0,1 mm 1 m/S 671 mmHg 92%
    18:00 -1°C° 0,1 mm 1 m/S 671 mmHg 92%
    19:00 -2°C° 0,1 mm 1 m/S 671 mmHg 91%
    20:00 -2°C° 0 mm 1 m/S 672 mmHg 90%
    21:00 -3°C° 0 mm 1 m/S 672 mmHg 89%
    22:00 -5°C° 0 mm 2 m/S 672 mmHg 88%
    23:00 -5°C° 0,1 mm 2 m/S 672 mmHg 87%

    16 Dezember, Samstag

    Zeit Temperatur Niederschläge Wind Luftdruck Luftfeuchtigkeit
    00:00 -5°C° 0,1 mm 2 m/S 673 mmHg 86%
    01:00 -4°C° 0,1 mm 2 m/S 673 mmHg 86%
    02:00 -4°C° 0,2 mm 2 m/S 674 mmHg 88%
    03:00 -4°C° 0,2 mm 2 m/S 674 mmHg 90%
    04:00 -4°C° 0,2 mm 2 m/S 675 mmHg 92%
    05:00 -4°C° 0,2 mm 2 m/S 675 mmHg 93%
    06:00 -5°C° 0,2 mm 2 m/S 676 mmHg 93%
    07:00 -5°C° 0,2 mm 2 m/S 676 mmHg 93%
    08:00 -5°C° 0,1 mm 2 m/S 677 mmHg 92%
    09:00 -4°C° 0,1 mm 2 m/S 678 mmHg 91%
    10:00 -4°C° 0,1 mm 2 m/S 678 mmHg 91%
    11:00 -3°C° 0 mm 2 m/S 678 mmHg 87%
    12:00 -2°C° 0 mm 2 m/S 678 mmHg 82%
    13:00 -2°C° 0 mm 2 m/S 678 mmHg 78%
    14:00 -1°C° 0 mm 1 m/S 678 mmHg 82%
    15:00 -2°C° 0 mm 1 m/S 678 mmHg 85%
    16:00 -3°C° 0 mm 1 m/S 678 mmHg 88%
    17:00 -4°C° 0 mm 1 m/S 679 mmHg 88%
    18:00 -6°C° 0 mm 1 m/S 679 mmHg 88%
    19:00 -6°C° 0 mm 1 m/S 680 mmHg 89%
    20:00 -7°C° 0 mm 1 m/S 680 mmHg 88%
    21:00 -7°C° 0 mm 1 m/S 680 mmHg 87%
    22:00 -7°C° 0 mm 1 m/S 681 mmHg 87%
    23:00 -7°C° 0 mm 1 m/S 681 mmHg 86%

    17 Dezember, Sonntag

    Zeit Temperatur Niederschläge Wind Luftdruck Luftfeuchtigkeit
    00:00 -7°C° 0 mm 1 m/S 681 mmHg 85%
    01:00 -6°C° 0 mm 1 m/S 681 mmHg 84%
    02:00 -7°C° 0 mm 1 m/S 681 mmHg 84%
    03:00 -7°C° 0 mm 1 m/S 681 mmHg 84%
    04:00 -7°C° 0 mm 1 m/S 681 mmHg 84%
    05:00 -7°C° 0,1 mm 1 m/S 681 mmHg 85%
    06:00 -7°C° 0,1 mm 1 m/S 682 mmHg 86%
    07:00 -8°C° 0,1 mm 2 m/S 682 mmHg 87%
    08:00 -7°C° 0,1 mm 2 m/S 683 mmHg 87%
    09:00 -4°C° 0,1 mm 1 m/S 683 mmHg 88%
    10:00 -3°C° 0,1 mm 1 m/S 684 mmHg 88%
    11:00 -5°C° 0,1 mm 2 m/S 684 mmHg 87%
    12:00 -4°C° 0,1 mm 2 m/S 684 mmHg 86%
    13:00 -3°C° 0,1 mm 2 m/S 684 mmHg 85%
    14:00 -4°C° 0,2 mm 2 m/S 684 mmHg 88%
    15:00 -4°C° 0,2 mm 2 m/S 684 mmHg 90%
    16:00 -5°C° 0,2 mm 2 m/S 684 mmHg 93%
    17:00 -5°C° 0,1 mm 2 m/S 685 mmHg 93%
    18:00 -6°C° 0,1 mm 2 m/S 685 mmHg 93%
    19:00 -7°C° 0,1 mm 2 m/S 686 mmHg 94%
    20:00 -8°C° 0 mm 2 m/S 686 mmHg 92%
    21:00 -9°C° 0 mm 2 m/S 686 mmHg 91%
    22:00 -10°C° 0 mm 2 m/S 686 mmHg 90%
    23:00 -10°C° 0 mm 2 m/S 686 mmHg 87%
    Mehr zeigen